Location: Eckartsbrunn
(47.8814°N, 8.8705°E)
Time: 01:26:42
(UTC+00:00)

Daily predictions for brighter satellites

Satellite Brightness Start Highest point End
(mag) Time Altitude Azimuth Time Altitude Azimuth Time Altitude Azimuth
STARLINK-1209 3.7 00:00:06 10° WNW 00:03:11 50° NNE 00:06:17 10° E
STARLINK-1247 4.1 00:00:47 10° WNW 00:03:47 42° NNE 00:06:46 10° E
STARLINK-1227 4.1 00:01:15 10° WNW 00:04:13 42° NNE 00:07:12 10° E
ATLAS CENTAUR R/B 3.4 00:02:47 10° NNW 00:04:46 25° NNE 00:08:03 10° E
STARLINK-1226 4.1 00:02:06 10° WNW 00:05:06 42° NNE 00:08:06 10° E
STARLINK-1215 4.1 00:03:02 10° WNW 00:06:03 43° NNE 00:09:03 10° E
Nadezhda 2 Rocket 4.5 00:04:33 35° S 00:07:14 74° E 00:13:21 10° NNE
STARLINK-1217 4.0 00:04:48 10° WNW 00:07:49 43° NNE 00:10:50 10° E
STARLINK-1229 4.0 00:05:43 10° WNW 00:08:44 44° NNE 00:11:45 10° E
STARLINK-1270 4.0 00:06:35 10° WNW 00:09:36 44° NNE 00:12:38 10° E
GEOS 3 Rocket 3.5 00:07:39 29° SSE 00:10:23 79° SW 00:15:43 10° NW
Cosmos 1726 3.5 00:07:44 10° NNW 00:10:54 27° W 00:10:54 27° W
STARLINK-1189 4.0 00:08:25 10° WNW 00:11:27 45° NNE 00:14:28 10° E
Cosmos 2058 Rocket 3.3 00:07:49 10° N 00:12:13 66° ENE 00:13:46 38° SSE
STARLINK-1188 4.0 00:09:18 10° WNW 00:12:20 45° NNE 00:15:22 10° E
STARLINK-1235 3.6 00:10:00 10° WNW 00:13:02 52° NNE 00:16:05 10° E
Meteor 1-29 2.7 00:09:58 10° NNE 00:13:22 80° ESE 00:13:32 77° SE
STARLINK-1187 3.8 00:10:25 10° WNW 00:13:27 49° NNE 00:16:29 10° E
COSMOS 2455 2.9 00:11:39 37° S 00:14:04 69° ESE 00:20:05 10° NE
Cosmos 2228 3.0 00:10:31 10° NNW 00:14:44 62° W 00:15:32 51° SW
STARLINK-1191 3.9 00:11:47 10° WNW 00:14:48 46° NNE 00:17:49 10° E
STARLINK-1221 3.9 00:12:39 10° WNW 00:15:41 47° NNE 00:18:41 10° E
SJ 16-02 4.0 00:12:36 10° N 00:15:42 18° NE 00:18:46 10° E
STARLINK-1222 3.8 00:13:33 10° WNW 00:16:34 47° NNE 00:19:36 10° E
STARLINK-1214 3.8 00:14:28 10° WNW 00:17:29 48° NNE 00:20:30 10° E
Cosmos 1953 3.9 00:16:03 10° NW 00:19:07 21° W 00:19:26 21° W
SL-14 R/B 3.6 00:18:39 44° SE 00:19:27 54° E 00:23:14 10° NNE
IRAS Rocket 4.2 00:17:53 31° SSE 00:20:41 90° SSE 00:26:18 10° NNW
Cosmos 1340 Rocket 4.1 00:17:24 10° NNW 00:20:51 27° W 00:21:08 27° W
Okean 1-7 Rocket 3.6 00:22:03 44° S 00:23:23 74° E 00:27:54 10° NNE
Cosmos 1174 3.2 00:23:33 70° SE 00:23:36 70° ESE 00:27:12 10° NE
Cosmos 1300 3.0 00:20:12 10° N 00:24:00 61° E 00:25:04 41° SE
Cosmos 921 Rocket 3.9 00:23:34 31° SE 00:24:45 38° ESE 00:28:45 10° NE
BREEZE M DEB (TANK) 2.9 00:26:49 39° E 00:26:49 39° E 00:29:04 10° E
COSMOS 2487 3.2 00:24:21 10° NW 00:27:18 38° W 00:27:18 38° W
Cosmos 2219 4.2 00:27:11 10° NNW 00:32:39 45° NE 00:38:02 10° SE
Cosmos 1626 2.0 00:34:31 57° S 00:35:13 86° E 00:38:58 10° N
STARLINK-60 3.1 00:36:27 59° ESE 00:36:27 59° ESE 00:39:22 10° ENE
Cosmos 1656 Rocket 4.3 00:33:52 24° WSW 00:37:00 48° NW 00:42:25 10° NNE
Cosmos 1606 Rocket 4.3 00:34:05 10° NNW 00:38:00 35° W 00:38:48 32° WSW
FALCON 9 R/B 3.7 00:38:25 28° SSW 00:41:18 37° SSE 00:58:27 10° ESE
Nadezhda 1 Rocket 4.1 00:35:22 10° N 00:41:31 72° E 00:45:52 21° SSE
STARLINK-1211 4.5 00:40:01 10° WNW 00:44:05 51° NNE 00:48:07 10° E
MOZ.5/SAFIR/RUBIN 5/SL-8 3.8 00:44:16 28° SSE 00:46:41 81° ENE 00:51:21 10° NNW
UNK 4.1 00:44:00 21° SSE 00:47:00 62° ENE 00:51:33 10° N
Cosmos 2297 Rocket 3.1 00:42:50 10° NNW 00:48:20 48° NE 00:53:46 10° SE
STARLINK-1245 4.4 00:45:01 10° WNW 00:49:05 53° NNE 00:53:09 10° E
SL-4 R/B 2.3 00:49:13 34° SW 00:51:15 72° SSE 00:55:59 10° ENE
Cosmos 1812 Rocket 4.3 00:47:02 10° N 00:51:25 50° ENE 00:54:30 18° SSE
CZ-4B R/B 4.5 00:47:13 10° NNE 00:52:03 40° E 00:55:16 20° SSE
Cosmos 1437 2.4 00:52:48 70° SSE 00:53:03 81° E 00:56:05 10° NNE
STARLINK-1233 4.3 00:49:59 10° WNW 00:54:04 55° NNE 00:58:09 10° E
Cosmos 1674 4.3 00:53:21 20° W 00:54:18 22° WNW 00:57:16 10° NNW
SL-19 R/B 4.3 00:51:48 10° N 00:57:08 68° WNW 01:00:03 29° SW
ATLAS CENTAUR R/B 1.6 00:56:57 32° WSW 00:58:49 66° NW 01:02:56 10° NNE
STARLINK-1204 4.3 00:54:58 10° WNW 00:59:05 57° NNE 01:03:10 10° E
Cosmos 1777 Rocket 4.3 00:54:47 10° NNW 00:59:48 47° WSW 01:01:54 31° SSW
Timation 2 Rocket 3.9 00:53:57 10° NW 01:00:16 65° WSW 01:04:30 20° S
SL-16 R/B 2.5 00:56:01 18° SSE 01:00:46 90° E 01:06:59 10° NNW
NOSS 3-4 (A) 3.9 00:57:31 18° WSW 01:01:53 55° NW 01:08:14 10° NE
NOSS 3-4 (C) 3.9 00:57:37 19° WSW 01:01:58 56° NW 01:08:21 10° NE
BREEZE-M R/B 3.3 01:01:08 35° SSW 01:02:12 42° SSE 01:05:11 10° E
FALCON 9 DEB 3.9 01:02:08 35° SSE 01:02:19 35° SE 01:05:31 10° ENE
Cosmos 1602 Rocket 3.7 01:01:57 29° SSE 01:04:02 65° E 01:08:20 10° NNE
STARLINK-1238 4.2 00:59:56 10° WNW 01:04:03 60° NNE 01:08:09 10° E
STARLINK-29 3.0 01:04:34 53° S 01:04:51 56° SSE 01:08:00 10° ENE
Cosmos 1455 3.4 01:02:51 10° N 01:06:23 38° ENE 01:09:23 13° SE
ATLAS 3B R/B 2.9 01:01:00 10° NW 01:07:31 49° WSW 01:12:43 17° S
BREEZE-M DEB (TANK) 4.1 01:09:30 14° ESE 01:09:30 14° ESE 01:10:07 10° E
STARLINK-1201 4.1 01:04:56 10° WNW 01:09:03 63° NNE 01:13:10 10° ESE
CENTAUR R/B 4.0 01:04:15 10° NW 01:11:07 30° WSW 01:14:47 22° SSW
GP-B 4.1 01:08:25 10° NNE 01:12:41 43° E 01:16:10 15° SSE
BREEZE-M DEB (TANK) 1.0 01:12:39 45° W 01:13:17 84° NNW 01:15:35 10° ENE
Meteor 2-1 Rocket 4.1 01:08:13 10° N 01:13:46 88° E 01:18:04 17° S
STARLINK-1206 4.0 01:09:55 10° WNW 01:14:03 66° NNE 01:18:10 10° ESE
Cosmos-2242 4.2 01:11:58 10° N 01:15:59 39° ENE 01:19:58 10° SE
Cosmos 1745 Rocket 4.0 01:12:45 25° SSW 01:16:31 75° W 01:22:40 10° N
STARLINK-1205 3.9 01:14:53 10° WNW 01:19:02 69° NNE 01:23:10 10° ESE
RESURS DK-1 2.6 01:19:17 29° SW 01:21:12 61° WNW 01:25:19 10° NNE
STARLINK-1218 3.8 01:19:51 10° WNW 01:24:01 73° NNE 01:28:09 10° ESE
Cosmos 2227 Rocket 2.4 01:18:19 10° NNW 01:24:01 74° ENE 01:29:42 10° SSE
Cosmos 1356 Rocket 3.7 01:20:02 10° NNW 01:24:02 49° W 01:25:49 29° SSW
Meteor 1-24 Rocket 4.4 01:22:03 22° SW 01:24:55 38° WNW 01:29:57 10° N
CZ-2D R/B 2.1 01:21:38 10° NNE 01:26:56 82° WNW 01:30:15 23° SSW
Cosmos 2369 Rocket 4.5 01:23:31 10° WNW 01:26:56 16° NW 01:30:22 10° N
Cosmos 1763 Rocket 4.4 01:23:45 16° SSE 01:27:27 40° ESE 01:32:12 10° NE
Cosmos 1697 Rocket 4.1 01:23:12 12° SSE 01:27:42 31° ESE 01:32:37 10° NE
STARLINK-1254 3.8 01:24:51 10° WNW 01:29:00 76° NNE 01:33:09 10° ESE
ADEOS II 2.9 01:24:32 10° NNE 01:29:35 45° E 01:34:07 12° S
Cosmos 1703 4.3 01:26:47 16° SSE 01:29:40 41° E 01:33:25 10° NNE
ATLAS 2AS CENTAUR R/B 3.8 01:23:21 10° WSW 01:31:02 47° NW 01:38:36 10° NE
CZ-4C R/B 4.1 01:30:46 27° SW 01:32:24 38° W 01:36:29 10° NNW
STARLINK-1231 3.7 01:29:51 10° WNW 01:34:01 81° NNE 01:38:10 10° ESE
STARLINK-1228 3.5 01:32:31 10° WNW 01:35:38 36° SW 01:38:44 10° SSE
Resurs 1-4 Rocket 2.2 01:31:24 10° N 01:36:40 67° WNW 01:40:11 21° SSW
STARLINK-1234 3.4 01:33:57 10° WNW 01:36:51 35° SW 01:37:03 35° SSW
STARLINK-1212 3.0 01:35:15 10° WNW 01:38:14 45° SW 01:41:14 10° SE
STARLINK-1105 3.1 01:35:43 10° WNW 01:38:42 45° SW 01:41:40 10° SE
STARLINK-1232 3.6 01:34:50 10° WNW 01:39:00 85° NNE 01:43:09 10° ESE
STARLINK-1209 3.7 01:36:14 10° WNW 01:38:42 31° SW 01:38:42 31° SW
STARLINK-1247 3.1 01:36:38 10° WNW 01:39:38 44° SW 01:42:37 10° SE
USA 81 4.0 01:36:19 21° SSW 01:39:57 74° W 01:45:15 10° N
STARLINK-1227 3.1 01:37:06 10° WNW 01:40:05 44° SW 01:43:02 10° SE
STARLINK-1226 3.1 01:37:56 10° WNW 01:40:56 43° SW 01:43:54 10° SE
STARLINK-52 2.9 01:39:41 28° WSW 01:41:16 87° NNW 01:44:29 10° ENE
ARIANE 5 R/B 3.8 01:37:00 10° NNE 01:41:39 35° E 01:46:14 10° SSE
STARLINK-1215 3.1 01:38:54 10° WNW 01:41:53 42° SW 01:44:51 10° SE
Cosmos 1758 Rocket 3.6 01:39:23 19° S 01:42:24 78° E 01:46:48 10° NNE
STARLINK-1217 3.2 01:40:40 10° WNW 01:43:38 41° SW 01:46:36 10° SE
STARLINK-1208 3.6 01:39:47 10° WNW 01:43:58 90° E 01:48:06 10° ESE
NPP 3.7 01:38:44 10° N 01:44:06 69° WNW 01:47:57 19° SSW
STARLINK-1229 3.2 01:41:36 10° WNW 01:44:34 40° SW 01:47:31 10° SE
H-2A R/B 4.0 01:41:15 10° SE 01:45:04 31° ENE 01:48:59 10° N
STARLINK-1270 3.2 01:42:28 10° WNW 01:45:25 40° SW 01:48:22 10° SE
STARLINK-1189 3.3 01:44:19 10° WNW 01:47:15 38° SW 01:50:11 10° SSE
STARLINK-1188 3.3 01:45:12 10° WNW 01:48:08 38° SW 01:51:04 10° SSE
STARLINK-1235 3.6 01:45:59 10° WNW 01:48:44 29° SW 01:51:30 10° SSE
STARLINK-1271 3.5 01:44:47 10° WNW 01:48:57 85° SSW 01:53:06 10° ESE
STARLINK-1187 3.5 01:46:21 10° WNW 01:49:11 33° SW 01:52:01 10° SSE
Cosmos 1898 Rocket 3.5 01:43:50 10° NNW 01:49:13 85° WSW 01:54:32 10° SSE
STARLINK-1191 3.4 01:47:41 10° WNW 01:50:35 36° SW 01:53:27 10° SSE
Starlink 7 placeholder 4.0 01:49:43 14° WNW 01:50:53 23° NNW 01:52:36 10° NE
Meteor 1-21 Rocket 4.2 01:46:49 18° SSW 01:50:58 74° WNW 01:56:41 10° N
Lacrosse 4 Rocket 2.9 01:46:49 10° NNW 01:50:58 41° NE 01:55:00 10° ESE
STARLINK-1221 3.4 01:48:34 10° WNW 01:51:26 35° SW 01:54:19 10° SSE
STARLINK-1222 3.4 01:49:28 10° WNW 01:52:20 34° SW 01:55:11 10° SSE
Cosmos 1656 3.7 01:48:20 18° SSW 01:52:37 82° ESE 01:58:17 10° NNE
STARLINK-1214 3.4 01:50:23 10° WNW 01:53:15 34° SW 01:56:05 10° SSE
STARLINK-1154 3.5 01:49:46 10° WNW 01:53:56 81° SSW 01:58:04 10° ESE
CZ-4C R/B 3.0 01:50:43 14° S 01:54:35 41° ESE 02:00:01 10° NE
SJ 16-02 1.4 01:50:19 10° NNW 01:54:42 62° WSW 01:59:04 10° S
Cosmos 2285 Rocket 4.2 01:48:16 10° NNW 01:54:42 77° ENE 02:01:02 10° SSE
IDEFIX/ARIANE 42P 4.5 01:50:32 10° NE 01:54:56 26° E 01:59:17 10° SSE
Cosmos 2084 3.7 01:52:18 19° SW 01:55:26 67° NW 01:59:54 10° NE
Cosmos 468 Rocket 4.0 01:52:22 17° SSW 01:56:18 83° ESE 02:01:27 10° NNE
Cosmos 1953 Rocket 3.9 01:54:38 12° S 01:58:44 65° E 02:03:10 10° NNE
STARLINK-1197 3.5 01:54:45 10° WNW 01:58:54 76° SSW 02:03:02 10° SE
Cosmos 1937 Rocket 3.5 01:54:13 10° NNW 01:59:29 87° ENE 02:04:45 10° SSE
COSMOS 2455 4.2 01:55:15 10° W 02:00:30 30° NW 02:05:49 10° NNE
Cosmos 2369 4.3 01:55:55 12° S 02:00:57 52° ESE 02:06:26 10° NE
Meteor 2-10 Rocket 3.8 01:56:20 10° NNW 02:01:32 52° W 02:06:00 13° SSW
STARLINK-1198 3.5 01:59:42 10° WNW 02:03:51 71° SSW 02:07:58 10° SE
Cosmos 1709 Rocket 4.2 02:01:48 16° SSW 02:06:42 57° WNW 02:12:45 10° N
STARLINK-1199 3.5 02:04:44 10° WNW 02:08:51 66° SSW 02:12:58 10° SE
STARLINK-1269 4.4 02:06:57 10° WNW 02:11:02 54° NNE 02:15:06 10° E
STARLINK-60 4.3 02:09:27 10° W 02:12:28 37° NNW 02:15:31 10° ENE
STARLINK-1210 3.6 02:09:42 10° WNW 02:13:48 61° SSW 02:17:53 10° SE
STARLINK-1200 4.4 02:11:57 10° WNW 02:16:03 56° NNE 02:20:08 10° E
Cosmos 2219 3.9 02:11:37 10° NW 02:16:39 33° WSW 02:21:36 10° SSW
STARLINK-1320 2.9 02:14:52 18° SW 02:17:04 70° SSE 02:20:10 10° ENE
STARLINK-1322 2.9 02:15:11 17° SW 02:17:24 70° SSE 02:20:31 10° ENE
STARLINK-1324 2.9 02:15:32 17° SW 02:17:45 71° SSE 02:20:52 10° ENE
STARLINK-1294 2.9 02:15:47 17° SW 02:18:02 71° SSE 02:21:10 10° ENE
STARLINK-1261 2.9 02:16:09 17° SW 02:18:24 71° SSE 02:21:32 10° ENE
STARLINK-1219 3.6 02:14:41 10° WNW 02:18:46 57° SW 02:22:50 10° SE
STARLINK-1325 2.9 02:16:30 17° SW 02:18:46 72° SSE 02:21:53 10° ENE
STARLINK-1333 2.9 02:16:48 17° SW 02:19:05 72° SSE 02:22:12 10° ENE
STARLINK-1334 2.8 02:17:07 17° SW 02:19:24 73° SSE 02:22:32 10° ENE
STARLINK-1326 2.8 02:17:28 17° SW 02:19:45 73° SSE 02:22:53 10° ENE
Cosmos 1980 Rocket 3.2 02:14:38 10° S 02:19:53 43° ESE 02:25:10 10° NE
STARLINK-1323 2.8 02:17:47 16° SW 02:20:06 74° SSE 02:23:13 10° ENE
STARLINK-1338 3.2 02:17:39 16° SW 02:20:20 69° SSE 02:23:47 10° ENE
STARLINK-1349 2.8 02:18:06 16° SW 02:20:26 74° SSE 02:23:33 10° ENE
STARLINK-1336 2.8 02:18:28 16° SW 02:20:48 75° SSE 02:23:56 10° ENE
STARLINK-1192 4.3 02:16:56 10° WNW 02:21:03 59° NNE 02:25:09 10° E
STARLINK-1331 2.8 02:18:45 16° SW 02:21:06 75° SSE 02:24:13 10° ENE
STARLINK-1344 2.8 02:19:05 16° SW 02:21:27 75° SSE 02:24:34 10° ENE
STARLINK-1343 2.8 02:19:25 16° SW 02:21:47 76° SSE 02:24:54 10° ENE
STARLINK-1346 2.8 02:19:43 16° SW 02:22:08 76° SSE 02:25:18 10° ENE
CRYOSAT 2 4.5 02:17:23 10° N 02:22:16 65° W 02:27:06 10° SSW
CZ-4B R/B 4.4 02:20:43 10° E 02:22:27 14° ENE 02:24:12 10° NNE
STARLINK-1328 2.8 02:20:05 16° SW 02:22:29 77° SSE 02:25:37 10° ENE
Cosmos 1328 4.1 02:19:19 14° SSW 02:22:37 53° WNW 02:26:33 10° N
STARLINK-1354 2.8 02:20:22 16° SW 02:22:47 77° SSE 02:25:54 10° ENE
STARLINK-1347 2.8 02:20:44 15° SW 02:23:09 78° SSE 02:26:16 10° ENE
STARLINK-1357 2.8 02:21:02 15° SW 02:23:28 78° SSE 02:26:36 10° ENE
STARLINK-1211 3.7 02:19:40 10° WNW 02:23:43 53° SW 02:27:45 10° SE
STARLINK-1335 2.8 02:21:22 15° SW 02:23:49 79° SSE 02:26:56 10° ENE
STARLINK-1327 2.8 02:21:41 15° WSW 02:24:09 79° SSE 02:27:16 10° ENE
STARLINK-1371 3.2 02:21:31 15° SW 02:24:21 73° SSE 02:27:51 10° ENE
STARLINK-1340 2.8 02:22:01 15° WSW 02:24:30 79° SSE 02:27:37 10° ENE
ERS-2 2.1 02:20:59 10° SSE 02:24:38 80° WSW 02:28:20 10° NNW
STARLINK-1356 2.8 02:22:21 15° WSW 02:24:50 80° SSE 02:27:58 10° ENE
STARLINK-1345 2.8 02:22:41 15° WSW 02:25:11 80° SSE 02:28:18 10° ENE
STARLINK-1355 2.8 02:22:59 15° WSW 02:25:30 81° SSE 02:28:38 10° ENE
STARLINK-1321 2.8 02:23:18 15° WSW 02:25:49 81° SSE 02:28:58 10° ENE
ERBS 4.5 02:22:56 10° NW 02:25:55 29° NNE 02:28:55 10° E
STARLINK-1244 4.2 02:21:54 10° WNW 02:26:02 61° NNE 02:30:08 10° ESE
STARLINK-1358 2.8 02:23:39 14° WSW 02:26:11 82° SSE 02:29:19 10° ENE
STARLINK-1341 3.2 02:23:29 14° SW 02:26:24 76° SSE 02:29:55 10° ENE
STARLINK-1332 2.8 02:23:57 14° WSW 02:26:30 82° SSE 02:29:38 10° ENE
STARLINK-1348 2.8 02:24:18 14° WSW 02:26:52 83° SSE 02:30:00 10° ENE
STARLINK-1330 2.8 02:24:36 14° WSW 02:27:11 83° SSE 02:30:19 10° ENE
STARLINK-1363 2.8 02:24:56 14° WSW 02:27:31 83° SSE 02:30:39 10° ENE
STARLINK-1337 2.8 02:25:15 14° WSW 02:27:51 84° SSE 02:30:59 10° ENE
IRS-1C 4.2 02:22:31 10° NNE 02:27:52 74° WNW 02:33:10 10° SSW
STARLINK-1342 2.8 02:25:35 14° WSW 02:28:12 84° SSE 02:31:20 10° ENE
STARLINK-1374 3.2 02:25:26 13° SW 02:28:27 78° SSE 02:31:58 10° ENE
STARLINK-1364 2.8 02:25:55 14° WSW 02:28:33 85° SSE 02:31:41 10° ENE
STARLINK-1245 3.8 02:24:41 10° WNW 02:28:42 49° SW 02:32:42 10° SE
STARLINK-1376 2.8 02:26:15 14° WSW 02:28:54 85° SE 02:32:02 10° ENE
STARLINK-1360 2.8 02:26:30 13° WSW 02:29:10 86° SSE 02:32:18 10° ENE
STARLINK-1361 2.8 02:26:56 13° WSW 02:29:36 86° SE 02:32:44 10° ENE
STARLINK-1367 2.8 02:27:10 13° WSW 02:29:52 86° SSE 02:33:03 10° ENE
STARLINK-1366 2.8 02:27:33 13° WSW 02:30:14 87° SSE 02:33:23 10° ENE
STARLINK-1339 3.1 02:27:27 13° WSW 02:30:32 80° SSE 02:34:03 10° ENE
STARLINK-1138 4.1 02:26:53 10° WNW 02:31:01 64° NNE 02:35:08 10° ESE
SL-4 R/B 3.0 02:26:26 10° W 02:31:11 57° N 02:35:44 10° ENE
Cosmos 2297 Rocket 3.0 02:27:15 10° NW 02:32:10 31° WSW 02:37:03 10° SSW
STARLINK-1377 3.1 02:29:28 12° WSW 02:32:38 83° SSE 02:36:09 10° ENE
STARLINK-1233 3.9 02:29:40 10° WNW 02:33:39 45° SW 02:37:36 10° SE
STARLINK-1203 4.1 02:29:41 10° WNW 02:33:53 67° NNE 02:38:04 10° ESE
STARLINK-1353 3.1 02:31:17 12° WSW 02:34:30 85° SSE 02:37:58 10° ENE
STARLINK-1143 4.0 02:31:52 10° WNW 02:36:01 68° NNE 02:40:08 10° ESE
Cosmos 2082 3.8 02:30:34 10° NW 02:36:05 55° WSW 02:41:33 10° S
STARLINK-1375 3.1 02:33:04 11° WSW 02:36:21 87° SSE 02:39:51 10° ENE
Cosmos 540 Rocket 3.6 02:32:51 10° SSW 02:37:59 82° ESE 02:43:09 10° NNE
ATLAS CENTAUR R/B 3.8 02:35:53 10° WNW 02:38:24 15° NNW 02:40:51 10° N
STARLINK-1204 4.0 02:34:41 10° WNW 02:38:37 42° SW 02:42:31 10° SSE
STARLINK-1350 3.1 02:35:22 11° WSW 02:38:44 90° NNW 02:42:14 10° ENE
FALCON 9 DEB 3.8 02:35:54 10° W 02:39:17 53° NNW 02:42:42 10° ENE
STARLINK-1241 3.9 02:36:51 10° WNW 02:40:59 71° NNE 02:45:08 10° ESE
STARLINK-29 4.2 02:38:03 10° W 02:41:06 39° NNW 02:44:07 10° ENE
STARLINK-1352 3.2 02:37:39 10° WSW 02:41:10 87° NNW 02:44:42 10° ENE
OE (NEXTSAT) 4.4 02:37:44 10° W 02:41:12 65° S 02:44:39 10° E
Landsat 5 3.8 02:37:02 10° SSE 02:41:31 84° ENE 02:46:05 10° NNW
Cosmos 1455 3.9 02:39:15 10° NW 02:41:42 17° W 02:44:08 10° SW
CZ-2D R/B 3.5 02:38:08 10° NNE 02:42:15 87° ESE 02:46:28 10° SSW
Cosmos 2278 3.9 02:36:49 10° SSW 02:42:27 75° ESE 02:48:07 10° NNE
STARLINK-1368 3.2 02:39:49 10° WSW 02:43:20 84° NNW 02:46:53 10° ENE
STARLINK-1238 4.1 02:39:40 10° WNW 02:43:33 39° SW 02:47:24 10° SSE
USA 234 4.1 02:37:34 10° ENE 02:43:41 41° SE 02:49:47 10° SSW
Meteor 1-28 Rocket 3.4 02:40:51 10° S 02:44:32 50° W 02:48:13 10° NNW
Meteor 1-11 4.3 02:38:59 10° SSW 02:44:35 68° WNW 02:50:12 10° N
SL-16 R/B 4.1 02:41:26 10° SW 02:45:12 17° W 02:49:00 10° NW
STARLINK-1369 3.2 02:41:46 10° WSW 02:45:16 82° NNW 02:48:46 10° ENE
STARLINK-1239 3.9 02:41:49 10° WNW 02:45:58 75° NNE 02:50:07 10° ESE
ATLAS CENTAUR R/B 3.4 02:43:54 10° W 02:47:09 27° SW 02:53:35 10° SSE
STARLINK-1372 3.3 02:44:12 10° WSW 02:47:44 80° NNW 02:51:17 10° ENE
Cosmos 2074 Rocket 4.1 02:41:43 10° SSW 02:47:59 69° W 02:54:18 10° N
Cosmos 2263 Rocket 3.2 02:42:38 10° NNW 02:48:08 52° NE 02:53:34 10° SE
STARLINK-1201 4.2 02:44:42 10° WNW 02:48:31 36° SW 02:52:19 10° SSE
Cosmos 372 Rocket 3.9 02:44:40 10° NNW 02:49:48 78° WSW 02:54:56 10° SSE
STARLINK-1378 3.3 02:46:25 10° WSW 02:49:58 77° NNW 02:53:31 10° ENE
Cosmos 841 Rocket 3.6 02:45:04 10° SSW 02:50:19 75° WNW 02:55:34 10° NNE
STARLINK-1329 3.3 02:46:56 10° WSW 02:50:29 77° NNW 02:54:02 10° ENE
STARLINK-1240 3.8 02:46:49 10° WNW 02:50:58 79° NNE 02:55:07 10° ESE
STARLINK-1365 3.3 02:47:42 10° WSW 02:51:13 74° NNW 02:54:45 10° ENE
STARLINK-1379 3.3 02:48:39 10° WSW 02:52:11 75° NNW 02:55:44 10° ENE
STARLINK-1362 3.3 02:49:14 10° WSW 02:52:47 75° NNW 02:56:20 10° ENE
Cosmos-2242 4.4 02:50:04 10° NW 02:53:17 21° W 02:56:29 10° SW
STARLINK-1206 4.3 02:49:42 10° WNW 02:53:28 33° SW 02:57:12 10° SSE
Cosmos 1892 4.1 02:50:21 10° SSE 02:53:57 40° E 02:57:33 10° NNE
Cosmos 1869 3.4 02:50:15 10° N 02:54:10 80° E 02:58:02 10° SSE
COBE Rocket 4.3 02:49:53 10° S 02:54:37 47° W 02:59:31 10° NNW
Cosmos 1400 Rocket 3.4 02:50:50 10° NNW 02:54:42 41° W 02:58:35 10° SSW
STARLINK-1373 3.4 02:51:32 10° WSW 02:55:04 73° NNW 02:58:38 10° ENE
Cosmos 2221 2.5 02:51:12 10° N 02:55:33 86° WSW 02:59:53 10° S
STARLINK-1216 3.7 02:51:47 10° WNW 02:55:57 83° NNE 03:00:06 10° ESE
STARLINK-1390 3.4 02:53:36 10° WSW 02:57:08 71° NNW 03:00:41 10° ENE
STARLINK-1205 4.4 02:54:44 10° WNW 02:58:25 31° SW 03:02:04 10° SSE
Cosmos 2184 Rocket 4.2 02:53:28 10° SSW 02:59:32 58° WNW 03:05:39 10° N
SL-08 R/B 4.2 02:56:08 10° SSW 03:00:12 29° W 03:04:15 10° NW
CZ-4C R/B 3.3 02:56:59 10° S 03:00:28 51° W 03:04:03 10° NNW
STARLINK-1237 3.7 02:56:46 10° WNW 03:00:56 88° NNE 03:05:05 10° ESE
